Location: Dziadowski
(50.3833°N, 20.0333°E)
Time: 12:12:08
(UTC+00:00)

Cosmos 2184 Rocket - Pass Details

Date: 18 January 2026
Orbit: 959 x 1001 km, 82.9° (Epoch: 16 February)

Event Time Altitude Azimuth Distance (km) Brightness Sun altitude
Rises 04:53:06 0° 212° (SSW) 3,649 6.8 -15.2°
Reaches altitude 10° 04:55:46 10° 219° (SW) 2,701 6.1 -14.8°
Maximum altitude 05:01:33 41° 289° (WNW) 1,371 4.3 -13.9°
Drops below altitude 10° 05:07:22 10° 359° (N) 2,704 6.1 -13.0°
Sets 05:10:03 0° 6° (N) 3,654 6.9 -12.6°
